Flag for Germany Weather past 2 weeks in Bad Oeynhausen, North Rhine-Westphalia, Germany

Now
48 °F

Partly sunny.


Feels Like: 47 °F
Forecast: 49 / 60 °F
Wind: 3 mph from South

Location: Bueckeburg

Current Time: Sep 23, 2014 at 8:52:26 AM

Latest Report: Sep 23, 2014 at 8:20 AM


Visibility: N/A

Pressure: 30.12 "Hg

Humidity: 94%

Dew point: 46 °F

Location of Bad OeynhausenLocation

Historic Weather in Bad Oeynhausen — Graph

°F

Bad Oeynhausen temperature yesterday

Maximum temperature yesterday: 57 °F (at 3:20 PM)
Minimum temperature yesterday: 45 °F (at 11:01 AM)
Average temperature yesterday: 54 °F

Past Weeks' High & Low Weather Summary

 TemperatureHumidityPressure
High79 °F (Sep 18, 4:20 PM)100% (Sep 8, 7:20 AM)30.24 "Hg (Sep 8, 7:20 AM)
Low43 °F (Sep 23, 6:20 AM)50% (Sep 17, 3:20 PM)29.86 "Hg (Sep 18, 1:20 PM)
Average61 °F83%30.03 "Hg
* Reported Sep 8 7:20 AM — Sep 23 7:20 AM, Bad Oeynhausen, Weather by CustomWeather, © 2014

Note: Actual official high and low records may vary slightly from our data, if they occured in-between our weather recording intervals... More about our weather records

Advertising

Bad Oeynhausen weather history for previous 24 hours

 ConditionsComfort  
Time TempWeatherWind HumidityBarometerVisibility
7:20 AM
Sep 23
45 °FPassing clouds.5 mph93%30.12 "HgN/A
6:20 AM43 °FPassing clouds.3 mph93%30.12 "HgN/A
5:20 AM46 °FPassing clouds.2 mph93%30.12 "HgN/A
4:20 AM50 °FPassing clouds.2 mph88%30.12 "HgN/A
3:20 AM50 °FPartly cloudy.6 mph82%30.12 "HgN/A
2:20 AM52 °FPassing clouds.5 mph82%30.12 "HgN/A
1:20 AM52 °FPassing clouds.7 mph77%30.12 "HgN/A
12:20 AM54 °FPassing clouds.8 mph72%30.09 "HgN/A
11:20 PM
Sep 22
54 °FPassing clouds.9 mph72%30.09 "HgN/A
10:20 PM54 °FPassing clouds.8 mph72%30.09 "HgN/A
9:20 PM55 °FPassing clouds.8 mph63%30.09 "HgN/A
8:20 PM55 °FPartly sunny.9 mph63%30.07 "HgN/A
7:20 PM55 °FPartly sunny.7 mph63%30.07 "HgN/A
7:02 PM55 °FScattered clouds.9 mph63%30.04 "HgN/A
6:20 PM57 °FScattered clouds.12 mph59%30.04 "HgN/A
5:20 PM57 °FPartly sunny.12 mph59%30.01 "HgN/A
4:20 PM57 °FPartly sunny.12 mph59%30.01 "HgN/A
3:20 PM57 °FScattered clouds.14 mph67%29.98 "HgN/A
2:20 PM55 °FPassing clouds.15 mph77%30.01 "HgN/A
1:20 PM54 °FPassing clouds.12 mph77%29.98 "HgN/A
12:20 PM48 °FScattered clouds.7 mph94%29.98 "HgN/A
11:20 AM46 °FLight rain. Partly sunny.3 mph93%30.01 "HgN/A
11:01 AM45 °FRain. Fog.13 mph93%30.01 "Hg3 mi
10:20 AM54 °FLight rain. Broken clouds.16 mph77%29.95 "Hg4 mi
9:20 AM54 °FPartly sunny.15 mph82%29.95 "HgN/A
8:20 AM54 °FScattered clouds.18 mph82%29.95 "HgN/A
Weather by CustomWeather, © 2014

See weather overviewHow to use our weather pages